• Join FlightAware (Why Join?)
  • Login
  • US Flag GB Flag 
08:39 EDT


 

Airport Tracker/Info


-or-


 

Live Flight TrackerFlight Track Log ✈ CTL16 ✈ 09-Jul-2013 ✈ KHAO - KBKL

Flight Track Log - Related Links

Times and Time Zones

All times are in EDT time to prevent confusion due to time zone crossing. See the CTL16 flight status page for this flight to view local times or setup timezone preferences in your user account.

Time Position Orientation Groundspeed Altitude Reporting Facility
EDT Latitude Longitude Course Direction KTS MPH feet Rate Location/Type
20:37 39.3833 -84.4667 57° Northeast 146 168 2,000  Level Cincinnati TRACON
20:38 39.4000 -84.4333 57° Northeast 146 168 2,500 540 Climbing Cincinnati TRACON
20:39 39.4175 -84.4006 55° Northeast 158 182 3,000 480 Climbing Indianapolis Center
20:39 39.4400 -84.3694 47° Northeast 173 199 3,400 480 Climbing Indianapolis Center
20:41 39.4717 -84.3289 45° Northeast 165 190 3,900 540 Climbing Indianapolis Center
20:42 39.5061 -84.2833 46° Northeast 164 189 4,500 540 Climbing Indianapolis Center
20:42 39.5367 -84.2536 37° Northeast 158 182 5,000 600 Climbing Indianapolis Center
20:43 39.5553 -84.2406 28° Northeast 159 183 5,400 600 Climbing Indianapolis Center
20:44 39.5792 -84.2286 21° North 149 171 5,700 480 Climbing Indianapolis Center
20:44 39.6153 -84.2078 24° Northeast 150 173 6,200 420 Climbing Indianapolis Center
20:45 39.6322 -84.1956 29° Northeast 152 175 6,400 480 Climbing Indianapolis Center
20:46 39.6719 -84.1736 23° Northeast 152 175 7,000 360 Climbing Indianapolis Center
20:47 39.6961 -84.1594 24° Northeast 155 178 7,000  Level Indianapolis Center
20:47 39.7128 -84.1486 27° Northeast 156 180 7,000  Level Indianapolis Center
20:48 39.7431 -84.1325 22° Northeast 170 196 7,000  Level Indianapolis Center
20:48 39.7569 -84.1228 28° Northeast 164 189 7,000  Level Indianapolis Center
20:49 39.7881 -84.1050 24° Northeast 175 201 7,000  Level Indianapolis Center
20:49 39.8103 -84.0928 23° Northeast 172 198 7,000  Level Indianapolis Center
20:50 39.8328 -84.0800 24° Northeast 178 205 7,000  Level Indianapolis Center
20:50 39.8558 -84.0653 26° Northeast 176 203 7,000  Level Indianapolis Center
20:51 39.9019 -84.0386 24° Northeast 178 205 7,000  Level Indianapolis Center
20:52 39.9489 -84.0150 21° North 178 205 7,000  Level Indianapolis Center
20:53 39.9964 -83.9881 23° Northeast 181 208 7,000  Level Indianapolis Center
20:54 40.0450 -83.9703 16° North 180 207 7,000 -120 Level Indianapolis Center
20:55 40.0719 -83.9664 North 174 200 6,900  Descending Indianapolis Center
20:55 40.0939 -83.9611 10° North 177 204 7,000 60 Climbing Indianapolis Center
20:56 40.1408 -83.9508 10° North 173 199 7,000  Level Indianapolis Center
20:57 40.1878 -83.9406 North 169 194 7,000  Level Indianapolis Center
20:58 40.2356 -83.9306 North 170 196 7,000  Level Indianapolis Center
20:59 40.2814 -83.9181 12° North 169 194 7,000  Level Indianapolis Center
21:00 40.3286 -83.9069 10° North 169 194 7,000  Level Indianapolis Center
21:01 40.3833 -83.8864 16° North 173 199 7,000  Level Indianapolis Center
21:02 40.4289 -83.8625 22° Northeast 174 200 7,000  Level Indianapolis Center
21:04 40.4753 -83.8400 20° North 174 200 7,100 60 Climbing Indianapolis Center
21:05 40.5200 -83.8206 18° North 169 194 7,200  Climbing Indianapolis Center
21:06 40.5658 -83.8008 18° North 171 197 7,100 -60 Descending Indianapolis Center
21:07 40.6111 -83.7747 24° Northeast 175 201 7,100  Level Indianapolis Center
21:08 40.6561 -83.7458 26° Northeast 177 204 7,100  Level Indianapolis Center
21:09 40.7008 -83.7206 23° Northeast 175 201 7,200  Climbing Indianapolis Center
21:10 40.7456 -83.6897 28° Northeast 178 205 7,100 -120 Descending Indianapolis Center
21:11 40.7739 -83.6308 58° Northeast 191 220 7,000 -60 Descending Indianapolis Center
21:12 40.7997 -83.5672 62° Northeast 194 223 7,000  Level Indianapolis Center
21:13 40.8264 -83.4992 63° Northeast 193 222 7,000  Level Indianapolis Center
21:14 40.8517 -83.4381 61° Northeast 190 219 7,000  Level Indianapolis Center
21:15 40.8778 -83.3758 61° Northeast 190 219 7,000  Level Indianapolis Center
21:16 40.9042 -83.3139 61° Northeast 192 221 7,000  Level Indianapolis Center
21:17 40.9292 -83.2519 62° Northeast 190 219 7,000  Level Indianapolis Center
21:18 40.9542 -83.1892 62° Northeast 189 217 7,000  Level Indianapolis Center
21:19 40.9814 -83.1158 64° Northeast 188 216 7,000  Level Indianapolis Center